Time,TemperatureF,DewpointF,PressureIn,WindDirection,WindDirectionDegrees,WindSpeedMPH,WindSpeedGustMPH,Humidity,HourlyPrecipIn,Conditions,Clouds,dailyrainin,SoftwareType,DateUTC
2013-03-03 00:11:00,24.2,23.0,29.68,NNW,328,0.0,-999.0,94,-99.99,,,0.00,weatherlink.com 1.10,2013-03-03 05:11:00,
2013-03-03 00:26:00,24.1,23.0,29.68,NNW,328,0.0,-999.0,94,-99.99,,,0.00,weatherlink.com 1.10,2013-03-03 05:26:00,
2013-03-03 00:41:00,24.0,23.0,29.68,NNW,328,0.0,-999.0,95,-99.99,,,0.00,weatherlink.com 1.10,2013-03-03 05:41:00,
2013-03-03 00:56:00,24.0,23.0,29.68,NNW,328,0.0,-999.0,94,-99.99,,,0.00,weatherlink.com 1.10,2013-03-03 05:56:00,
2013-03-03 01:11:00,23.9,23.0,29.67,NNW,328,0.0,-999.0,95,-99.99,,,0.00,weatherlink.com 1.10,2013-03-03 06:11:00,
2013-03-03 01:26:00,23.8,22.0,29.67,NNW,328,0.0,-999.0,94,-99.99,,,0.00,weatherlink.com 1.10,2013-03-03 06:26:00,
2013-03-03 01:41:00,23.7,22.0,29.67,NNW,328,0.0,-999.0,94,-99.99,,,0.00,weatherlink.com 1.10,2013-03-03 06:41:00,
2013-03-03 02:11:00,23.6,22.0,29.66,NNW,328,0.0,-999.0,95,-99.99,,,0.00,weatherlink.com 1.10,2013-03-03 07:11:00,
2013-03-03 02:26:00,23.6,22.0,29.66,NNW,328,0.0,-999.0,95,-99.99,,,0.00,weatherlink.com 1.10,2013-03-03 07:26:00,
2013-03-03 02:42:00,23.5,22.0,29.65,NNW,328,0.0,-999.0,95,-99.99,,,0.00,weatherlink.com 1.10,2013-03-03 07:42:00,
2013-03-03 02:57:00,23.4,22.0,29.65,NNW,328,0.0,-999.0,95,-99.99,,,0.00,weatherlink.com 1.10,2013-03-03 07:57:00,
2013-03-03 03:12:00,23.3,22.0,29.65,NNW,328,0.0,-999.0,94,-99.99,,,0.00,weatherlink.com 1.10,2013-03-03 08:12:00,
2013-03-03 03:27:00,23.3,22.0,29.65,NNW,328,0.0,-999.0,94,-99.99,,,0.00,weatherlink.com 1.10,2013-03-03 08:27:00,
2013-03-03 03:42:00,23.3,22.0,29.65,NNW,328,0.0,-999.0,95,-99.99,,,0.00,weatherlink.com 1.10,2013-03-03 08:42:00,
2013-03-03 03:57:00,23.2,22.0,29.65,NNW,328,0.0,-999.0,95,-99.99,,,0.00,weatherlink.com 1.10,2013-03-03 08:57:00,
2013-03-03 04:12:00,23.2,22.0,29.65,NNW,328,0.0,-999.0,95,-99.99,,,0.00,weatherlink.com 1.10,2013-03-03 09:12:00,
2013-03-03 04:27:00,23.1,22.0,29.65,NNW,328,0.0,-999.0,95,-99.99,,,0.00,weatherlink.com 1.10,2013-03-03 09:27:00,
2013-03-03 04:42:00,23.0,22.0,29.65,NNW,328,0.0,-999.0,95,-99.99,,,0.00,weatherlink.com 1.10,2013-03-03 09:42:00,
2013-03-03 04:57:00,22.9,22.0,29.66,NNW,328,0.0,-999.0,95,-99.99,,,0.00,weatherlink.com 1.10,2013-03-03 09:57:00,
2013-03-03 05:12:00,22.9,22.0,29.66,NNW,328,0.0,-999.0,95,-99.99,,,0.00,weatherlink.com 1.10,2013-03-03 10:12:00,
2013-03-03 05:27:00,22.9,22.0,29.66,NNW,328,0.0,-999.0,95,-99.99,,,0.00,weatherlink.com 1.10,2013-03-03 10:27:00,
2013-03-03 05:42:00,22.9,22.0,29.66,NNW,328,0.0,-999.0,94,-99.99,,,0.00,weatherlink.com 1.10,2013-03-03 10:42:00,
2013-03-03 05:57:00,22.9,22.0,29.66,NNW,328,0.0,-999.0,95,-99.99,,,0.00,weatherlink.com 1.10,2013-03-03 10:57:00,
2013-03-03 06:12:00,22.9,22.0,29.66,NNW,328,0.0,-999.0,95,-99.99,,,0.00,weatherlink.com 1.10,2013-03-03 11:12:00,
2013-03-03 06:27:00,22.8,22.0,29.66,NNW,328,0.0,-999.0,95,-99.99,,,0.00,weatherlink.com 1.10,2013-03-03 11:27:00,
2013-03-03 06:42:00,22.8,22.0,29.66,NNW,328,0.0,-999.0,95,-99.99,,,0.00,weatherlink.com 1.10,2013-03-03 11:42:00,
2013-03-03 06:57:00,22.8,22.0,29.66,NNW,328,0.0,-999.0,95,-99.99,,,0.00,weatherlink.com 1.10,2013-03-03 11:57:00,
2013-03-03 07:12:00,22.9,22.0,29.66,NW,309,0.0,-999.0,95,-99.99,,,0.00,weatherlink.com 1.10,2013-03-03 12:12:00,
2013-03-03 07:27:00,23.1,22.0,29.66,NW,309,0.0,-999.0,95,-99.99,,,0.00,weatherlink.com 1.10,2013-03-03 12:27:00,
2013-03-03 07:42:00,23.2,22.0,29.67,NW,309,0.0,-999.0,95,-99.99,,,0.00,weatherlink.com 1.10,2013-03-03 12:42:00,
2013-03-03 07:57:00,23.4,22.0,29.66,NW,313,0.0,-999.0,95,-99.99,,,0.00,weatherlink.com 1.10,2013-03-03 12:57:00,
2013-03-03 08:12:00,23.8,23.0,29.67,NW,313,0.0,-999.0,95,-99.99,,,0.00,weatherlink.com 1.10,2013-03-03 13:12:00,
2013-03-03 08:27:00,24.0,23.0,29.67,NW,313,0.0,-999.0,94,-99.99,,,0.00,weatherlink.com 1.10,2013-03-03 13:27:00,
2013-03-03 08:42:00,24.2,23.0,29.66,NW,313,0.0,-999.0,94,-99.99,,,0.00,weatherlink.com 1.10,2013-03-03 13:42:00,
2013-03-03 08:57:00,24.6,23.0,29.66,NW,313,0.0,-999.0,94,-99.99,,,0.00,weatherlink.com 1.10,2013-03-03 13:57:00,
2013-03-03 09:12:00,25.1,23.0,29.66,NW,313,1.0,-999.0,93,-99.99,,,0.00,weatherlink.com 1.10,2013-03-03 14:12:00,
2013-03-03 09:27:00,25.3,24.0,29.65,WNW,301,0.0,-999.0,93,-99.99,,,0.00,weatherlink.com 1.10,2013-03-03 14:27:00,
2013-03-03 09:42:00,25.8,24.0,29.65,WNW,298,0.0,-999.0,92,-99.99,,,0.00,weatherlink.com 1.10,2013-03-03 14:42:00,
2013-03-03 09:57:00,26.2,24.0,29.65,WNW,298,0.0,-999.0,92,-99.99,,,0.00,weatherlink.com 1.10,2013-03-03 14:57:00,
2013-03-03 10:12:00,26.7,25.0,29.64,WNW,298,0.0,-999.0,91,-99.99,,,0.00,weatherlink.com 1.10,2013-03-03 15:12:00,
2013-03-03 10:27:00,27.0,25.0,29.64,WNW,298,0.0,-999.0,91,-99.99,,,0.00,weatherlink.com 1.10,2013-03-03 15:27:00,
2013-03-03 10:42:00,27.3,25.0,29.64,WNW,290,0.0,-999.0,91,-99.99,,,0.00,weatherlink.com 1.10,2013-03-03 15:42:00,
2013-03-03 10:57:00,27.4,25.0,29.64,WNW,290,0.0,-999.0,91,-99.99,,,0.00,weatherlink.com 1.10,2013-03-03 15:57:00,
2013-03-03 11:12:00,27.8,25.0,29.63,NW,317,1.0,-999.0,90,-99.99,,,0.00,weatherlink.com 1.10,2013-03-03 16:12:00,
2013-03-03 11:27:00,27.9,25.0,29.64,NW,309,1.0,-999.0,90,-99.99,,,0.00,weatherlink.com 1.10,2013-03-03 16:27:00,
2013-03-03 11:42:00,28.0,25.0,29.63,NW,317,0.0,-999.0,89,-99.99,,,0.00,weatherlink.com 1.10,2013-03-03 16:42:00,
2013-03-03 11:57:00,28.1,26.0,29.63,NW,317,0.0,-999.0,90,-99.99,,,0.00,weatherlink.com 1.10,2013-03-03 16:57:00,
2013-03-03 12:12:00,28.5,26.0,29.63,NNE,28,0.0,-999.0,90,-99.99,,,0.00,weatherlink.com 1.10,2013-03-03 17:12:00,
2013-03-03 12:27:00,28.8,26.0,29.62,North,360,0.0,-999.0,89,-99.99,,,0.00,weatherlink.com 1.10,2013-03-03 17:27:00,
2013-03-03 12:42:00,29.3,26.0,29.62,North,360,0.0,-999.0,88,-99.99,,,0.00,weatherlink.com 1.10,2013-03-03 17:42:00,
2013-03-03 12:57:00,29.4,26.0,29.61,North,360,0.0,-999.0,88,-99.99,,,0.00,weatherlink.com 1.10,2013-03-03 17:57:00,
2013-03-03 13:12:00,29.6,27.0,29.61,WSW,257,0.0,-999.0,88,-99.99,,,0.00,weatherlink.com 1.10,2013-03-03 18:12:00,
2013-03-03 13:27:00,30.0,27.0,29.60,West,281,0.0,-999.0,88,-99.99,,,0.00,weatherlink.com 1.10,2013-03-03 18:27:00,
2013-03-03 13:42:00,30.1,27.0,29.60,West,274,0.0,-999.0,87,-99.99,,,0.00,weatherlink.com 1.10,2013-03-03 18:42:00,
2013-03-03 13:57:00,29.9,27.0,29.61,North,5,2.0,-999.0,88,-99.99,,,0.00,weatherlink.com 1.10,2013-03-03 18:57:00,
2013-03-03 14:12:00,29.7,27.0,29.61,WNW,300,0.0,-999.0,88,-99.99,,,0.00,weatherlink.com 1.10,2013-03-03 19:12:00,
2013-03-03 14:27:00,29.7,27.0,29.60,NNE,17,0.0,-999.0,89,-99.99,,,0.00,weatherlink.com 1.10,2013-03-03 19:27:00,
2013-03-03 14:42:00,29.7,27.0,29.60,NE,36,0.0,-999.0,89,-99.99,,,0.00,weatherlink.com 1.10,2013-03-03 19:42:00,
2013-03-03 14:57:00,29.6,27.0,29.61,NNE,13,0.0,-999.0,90,-99.99,,,0.00,weatherlink.com 1.10,2013-03-03 19:57:00,
2013-03-03 15:12:00,29.6,27.0,29.61,WNW,284,1.0,-999.0,91,-99.99,,,0.00,weatherlink.com 1.10,2013-03-03 20:12:00,
2013-03-03 15:27:00,29.4,27.0,29.61,NW,311,1.0,-999.0,92,-99.99,,,0.00,weatherlink.com 1.10,2013-03-03 20:27:00,
2013-03-03 15:42:00,29.1,27.0,29.61,NW,310,0.0,-999.0,93,-99.99,,,0.00,weatherlink.com 1.10,2013-03-03 20:42:00,
2013-03-03 15:57:00,28.4,27.0,29.61,NW,316,1.0,-999.0,93,-99.99,,,0.00,weatherlink.com 1.10,2013-03-03 20:57:00,
2013-03-03 16:12:00,27.9,26.0,29.61,WSW,244,0.0,-999.0,94,-99.99,,,0.00,weatherlink.com 1.10,2013-03-03 21:12:00,
2013-03-03 16:27:00,27.8,26.0,29.62,South,173,0.0,-999.0,94,-99.99,,,0.00,weatherlink.com 1.10,2013-03-03 21:27:00,
2013-03-03 16:42:00,27.5,26.0,29.62,North,5,0.0,-999.0,94,-99.99,,,0.00,weatherlink.com 1.10,2013-03-03 21:42:00,
2013-03-03 16:57:00,27.2,26.0,29.62,WSW,239,0.0,-999.0,94,-99.99,,,0.00,weatherlink.com 1.10,2013-03-03 21:57:00,
2013-03-03 17:13:00,27.0,25.0,29.62,SW,224,0.0,-999.0,93,-99.99,,,0.00,weatherlink.com 1.10,2013-03-03 22:13:00,
2013-03-03 17:28:00,26.9,25.0,29.63,SW,224,1.0,-999.0,94,-99.99,,,0.00,weatherlink.com 1.10,2013-03-03 22:28:00,
2013-03-03 17:43:00,26.8,25.0,29.63,West,278,0.0,-999.0,93,-99.99,,,0.00,weatherlink.com 1.10,2013-03-03 22:43:00,
2013-03-03 17:58:00,26.6,25.0,29.64,West,278,0.0,-999.0,93,-99.99,,,0.00,weatherlink.com 1.10,2013-03-03 22:58:00,
2013-03-03 18:13:00,26.5,25.0,29.64,West,278,0.0,-999.0,93,-99.99,,,0.00,weatherlink.com 1.10,2013-03-03 23:13:00,
2013-03-03 18:28:00,26.5,25.0,29.64,West,278,0.0,-999.0,93,-99.99,,,0.00,weatherlink.com 1.10,2013-03-03 23:28:00,
2013-03-03 18:43:00,26.5,25.0,29.64,West,279,0.0,-999.0,92,-99.99,,,0.00,weatherlink.com 1.10,2013-03-03 23:43:00,
2013-03-03 18:58:00,26.5,25.0,29.64,West,278,0.0,-999.0,93,-99.99,,,0.00,weatherlink.com 1.10,2013-03-03 23:58:00,
2013-03-03 19:13:00,26.5,25.0,29.64,West,278,0.0,-999.0,93,-99.99,,,0.00,weatherlink.com 1.10,2013-03-04 00:13:00,
2013-03-03 19:28:00,26.4,25.0,29.64,West,278,0.0,-999.0,93,-99.99,,,0.00,weatherlink.com 1.10,2013-03-04 00:28:00,
2013-03-03 19:43:00,26.3,25.0,29.64,NE,34,1.0,-999.0,93,-99.99,,,0.00,weatherlink.com 1.10,2013-03-04 00:43:00,
2013-03-03 19:58:00,26.1,24.0,29.64,West,260,1.0,-999.0,92,-99.99,,,0.00,weatherlink.com 1.10,2013-03-04 00:58:00,
2013-03-03 20:13:00,26.0,24.0,29.64,West,274,0.0,-999.0,91,-99.99,,,0.00,weatherlink.com 1.10,2013-03-04 01:13:00,
2013-03-03 20:28:00,25.7,24.0,29.64,SW,232,0.0,-999.0,91,-99.99,,,0.00,weatherlink.com 1.10,2013-03-04 01:28:00,
2013-03-03 20:43:00,25.6,24.0,29.64,NNW,329,0.0,-999.0,92,-99.99,,,0.00,weatherlink.com 1.10,2013-03-04 01:43:00,
2013-03-03 20:58:00,25.4,23.0,29.64,NW,308,0.0,-999.0,92,-99.99,,,0.00,weatherlink.com 1.10,2013-03-04 01:58:00,
2013-03-03 21:13:00,25.3,23.0,29.64,North,355,0.0,-999.0,92,-99.99,,,0.00,weatherlink.com 1.10,2013-03-04 02:13:00,
2013-03-03 21:28:00,25.2,23.0,29.64,NE,36,0.0,-999.0,92,-99.99,,,0.00,weatherlink.com 1.10,2013-03-04 02:28:00,
2013-03-03 21:43:00,25.1,23.0,29.63,NNE,12,0.0,-999.0,91,-99.99,,,0.00,weatherlink.com 1.10,2013-03-04 02:43:00,
2013-03-03 21:58:00,25.0,23.0,29.63,NNE,12,0.0,-999.0,92,-99.99,,,0.00,weatherlink.com 1.10,2013-03-04 02:58:00,
2013-03-03 22:13:00,24.9,23.0,29.63,NW,306,2.0,-999.0,92,-99.99,,,0.00,weatherlink.com 1.10,2013-03-04 03:13:00,
2013-03-03 22:28:00,24.7,23.0,29.63,WNW,302,1.0,-999.0,91,-99.99,,,0.00,weatherlink.com 1.10,2013-03-04 03:28:00,
2013-03-03 22:43:00,24.6,22.0,29.63,SE,126,0.0,-999.0,91,-99.99,,,0.00,weatherlink.com 1.10,2013-03-04 03:43:00,
2013-03-03 22:58:00,24.4,22.0,29.63,NE,38,1.0,-999.0,90,-99.99,,,0.00,weatherlink.com 1.10,2013-03-04 03:58:00,
2013-03-03 23:13:00,24.3,22.0,29.63,ENE,60,0.0,-999.0,90,-99.99,,,0.00,weatherlink.com 1.10,2013-03-04 04:13:00,
2013-03-03 23:28:00,24.1,21.0,29.63,SW,219,1.0,-999.0,89,-99.99,,,0.00,weatherlink.com 1.10,2013-03-04 04:28:00,
2013-03-03 23:43:00,23.9,21.0,29.62,NNE,21,0.0,-999.0,90,-99.99,,,0.00,weatherlink.com 1.10,2013-03-04 04:43:00,
2013-03-03 23:58:00,23.8,21.0,29.62,NW,314,0.0,-999.0,89,-99.99,,,0.00,weatherlink.com 1.10,2013-03-04 04:58:00,